Location: Oberkirch
(48.5323°N, 8.0787°E)
Time: 15:38:48
(UTC+00:00)

Tiros 1 despin weight - Pass Details

Date: 09 February 2026
Orbit: 556 x 593 km, 48.2° (Epoch: 5 March)

Event Time Altitude Azimuth Distance (km) Brightness Sun altitude
Rises 18:25:05 0° 234° (SW) 2,725 ? -17.9°
Reaches altitude 10° 18:27:22 10° 229° (SW) 1,833 ? -18.3°
Maximum altitude 18:31:22 45° 156° (SSE) 761 ? -19.0°
Enters shadow 18:32:02 41° 127° (SE) 811 ? -19.1°
